Overview Statistics Trail Chart Weather Telemetry Raw packets
 

This is the latest recevied weather packets stored in our database for station/object W0WFX-2. If no packets are shown the sender has not sent any weather packets the latest 10 day(s).

<< 51 52 53 54 55 56 57 >>
Time Temp. Humidity Pressure Rain* Wind** Luminosity Snow
1788297481 37.78° C 30% 1013.7 hPa 0 mm - 93 W/m² -
1788297178 37.78° C 30% 1013.7 hPa 0 mm - 92 W/m² -
1788296873 37.78° C 28% 1014.1 hPa 0 mm - 93 W/m² -
1788296568 37.78° C 28% 1014 hPa 0 mm - 92 W/m² -
1788296264 37.78° C 29% 1014.1 hPa 0 mm - 92 W/m² -
1788295964 38.33° C 30% 1014.2 hPa 0 mm - 95 W/m² -
1788295660 37.78° C 29% 1014.1 hPa 0 mm - 95 W/m² -
1788295356 37.78° C 29% 1014.1 hPa 0 mm - 95 W/m² -
1788295051 37.78° C 30% 1014.2 hPa 0 mm - 99 W/m² -
1788294750 38.33° C 28% 1014.2 hPa 0 mm - 98 W/m² -
1788294450 37.78° C 29% 1014.2 hPa 0 mm - 98 W/m² -
1788294146 38.33° C 28% 1014.4 hPa 0 mm - 98 W/m² -
1788293841 38.33° C 29% 1014.5 hPa 0 mm - 100 W/m² -
1788293541 38.33° C 30% 1014.6 hPa 0 mm - 106 W/m² -
1788293241 38.33° C 30% 1014.6 hPa 0 mm - 124 W/m² -
1788292936 38.33° C 29% 1014.6 hPa 0 mm - 111 W/m² -
1788292634 38.33° C 28% 1014.4 hPa 0 mm - 110 W/m² -
1788292328 38.33° C 30% 1014.6 hPa 0 mm - 107 W/m² -
1788292024 38.33° C 28% 1014.5 hPa 0 mm - 662 W/m² -
1788291718 38.89° C 29% 1014.7 hPa 0 mm - 672 W/m² -
1788291415 38.89° C 29% 1014.8 hPa 0 mm - 670 W/m² -
1788291109 38.89° C 28% 1014.7 hPa 0 mm - 676 W/m² -
1788290809 38.89° C 28% 1014.9 hPa 0 mm - 682 W/m² -
1788290504 38.33° C 28% 1014.9 hPa 0 mm - 686 W/m² -
1788290200 38.33° C 29% 1014.9 hPa 0 mm - 696 W/m² -

* Rain latest hour (hover to see other rain measurements)
** Current wind speed in m/s (hover to see current wind gust speed)